Coleman, TX

12:21 AM CST on February 19, 2018 (GMT -0600)
Coleman Municipal

Weather History for KCOM - January, 2014

Change the Weather History Date:

Sunday, January 12, 2014

  Actual Average (KABI) Record (KABI)
Temperature  
Mean Temperature 58 °F -  
Max Temperature 73 °F 55 °F 82 °F (2000)
Min Temperature 43 °F 32 °F -1 °F (1973)
Degree Days  
Heating Degree Days 7    
Growing Degree Days 8 (Base 50)    
Moisture  
Dew Point 33 °F    
Average Humidity 40    
Maximum Humidity 65    
Minimum Humidity 20    
Precipitation  
Precipitation 0.00 in - - ()
Sea Level Pressure  
Sea Level Pressure 29.92 in    
Wind  
Wind Speed 12 mph (SSW)    
Max Wind Speed 31 mph    
Max Gust Speed 39 mph    
Visibility 10 miles    
Events      
Averages and records for this station are not official NWS values.
T = Trace of Precipitation, MM = Missing Value Source: NWS Daily Summary

Daily Weather History Graph

Daily Weather History Graph

Search for Another Location

Airport or City:

Trip Planner

Search our weather history database for the weather conditions in past years. The results will help you decide how hot, cold, wet, or windy it might be!

Date:

Astronomy

Jan. 12, 2014 Rise Set
Actual Time 7:38 AM CST 5:53 PM CST
Civil Twilight 7:11 AM CST 6:20 PM CST
Nautical Twilight 6:41 AM CST 6:50 PM CST
Astronomical Twilight 6:12 AM CST 7:19 PM CST
Moon 3:21 PM CST (1/12) 4:40 AM CST (1/12)
Length of Visible Light 11h 08m
Length of Day
10h 15m
Waxing Gibbous, 90% of the Moon is Illuminated
Jan 12
Waxing Gibbous
Jan 15
Full
Jan 23
Last Quarter
Jan 30
New
Feb 6
First Quarter

Hourly Weather History & Observations

Time (CST) Temp. Windchill Dew Point Humidity Pressure Visibility Wind Dir Wind Speed Gust Speed Precip Events Conditions
12:15 AM 44.6 °F 40.7 °F 22.8 °F 42% 30.07 in 10.0 mi SSW 6.9 mph - N/A   Clear
12:35 AM 46.0 °F 41.9 °F 23.0 °F 40% 30.06 in 10.0 mi SSW 8.1 mph - N/A   Clear
12:55 AM 45.5 °F 43.2 °F 23.0 °F 41% 30.06 in 10.0 mi SSW 4.6 mph - N/A   Clear
1:15 AM 46.4 °F 42.4 °F 22.8 °F 39% 30.05 in 10.0 mi SSW 8.1 mph - N/A   Clear
1:35 AM 46.6 °F - 22.8 °F 39% 30.04 in 10.0 mi SSW 9.2 mph - N/A   Clear
1:55 AM 44.6 °F 40.7 °F 23.0 °F 43% 30.04 in 10.0 mi SSW 6.9 mph - N/A   Clear
2:15 AM 43.2 °F 39.0 °F 23.4 °F 46% 30.03 in 10.0 mi SSW 6.9 mph - N/A   Clear
2:35 AM 43.2 °F 39.0 °F 23.5 °F 46% 30.03 in 10.0 mi SSW 6.9 mph - N/A   Clear
2:55 AM 45.0 °F 40.1 °F 23.7 °F 43% 30.03 in 10.0 mi SSW 9.2 mph - N/A   Clear
3:15 AM 45.9 °F 41.2 °F 24.6 °F 43% 30.03 in 10.0 mi SW 9.2 mph - N/A   Clear
3:35 AM 45.5 °F 40.8 °F 25.0 °F 45% 30.01 in 10.0 mi SSW 9.2 mph - N/A   Clear
3:55 AM 44.8 °F 39.0 °F 25.7 °F 47% 30.01 in 10.0 mi SSW 11.5 mph - N/A   Clear
4:15 AM 46.4 °F 41.1 °F 25.7 °F 44% 30.01 in 10.0 mi SSW 11.5 mph - N/A   Clear
4:35 AM 46.4 °F 40.7 °F 26.1 °F 45% 30.00 in 10.0 mi SSW 12.7 mph - N/A   Clear
4:55 AM 45.3 °F 40.6 °F 26.2 °F 47% 29.99 in 10.0 mi SSW 9.2 mph - N/A   Clear
5:15 AM 44.6 °F 40.2 °F 26.1 °F 48% 29.99 in 10.0 mi SSW 8.1 mph - N/A   Clear
5:35 AM 44.4 °F 39.0 °F 26.2 °F 49% 29.99 in 10.0 mi SSW 10.4 mph - N/A   Clear
5:55 AM 46.6 °F - 27.0 °F 46% 29.98 in 10.0 mi SSW 9.2 mph - N/A   Clear
6:15 AM 45.0 °F 40.6 °F 27.0 °F 49% 29.99 in 10.0 mi SSW 8.1 mph - N/A   Clear
6:35 AM 44.6 °F 41.4 °F 27.1 °F 50% 29.98 in 10.0 mi SSW 5.8 mph - N/A   Clear
6:55 AM 45.7 °F 40.6 °F 28.0 °F 50% 29.98 in 10.0 mi SSW 10.4 mph - N/A   Clear
7:15 AM 46.4 °F 41.9 °F 28.6 °F 50% 29.98 in 10.0 mi SSW 9.2 mph - N/A   Clear
7:35 AM 45.0 °F 39.7 °F 28.9 °F 53% 29.98 in 10.0 mi SSW 10.4 mph - N/A   Clear
7:55 AM 46.4 °F 41.1 °F 29.3 °F 51% 29.99 in 10.0 mi SSW 11.5 mph - N/A   Clear
8:15 AM 48.2 °F - 29.8 °F 49% 29.99 in 10.0 mi SSW 13.8 mph - N/A   Clear
8:35 AM 51.1 °F - 30.0 °F 44% 29.98 in 10.0 mi SSW 17.3 mph - N/A   Clear
8:55 AM 54.1 °F - 29.1 °F 38% 29.99 in 10.0 mi SSW 16.1 mph 24.2 mph N/A   Clear
9:15 AM 55.8 °F - 28.8 °F 36% 29.99 in 10.0 mi SSW 19.6 mph 23.0 mph N/A   Clear
9:35 AM 57.4 °F - 28.2 °F 33% 29.99 in 10.0 mi SSW 21.9 mph 27.6 mph N/A   Clear
9:55 AM 59.5 °F - 27.9 °F 30% 29.99 in 10.0 mi SSW 21.9 mph 28.8 mph N/A   Clear
10:15 AM 61.2 °F - 27.3 °F 28% 29.99 in 10.0 mi SSW 20.7 mph 29.9 mph N/A   Clear
10:35 AM 63.5 °F - 27.9 °F 26% 29.99 in 10.0 mi SSW 19.6 mph 31.1 mph N/A   Clear
10:55 AM 65.3 °F - 28.2 °F 25% 29.99 in 10.0 mi SSW 23.0 mph 32.2 mph N/A   Clear
11:15 AM 68.4 °F - 29.8 °F 24% 29.97 in 10.0 mi SSW 20.7 mph 27.6 mph N/A   Clear
11:35 AM 70.2 °F - 30.0 °F 23% 29.96 in 10.0 mi SSW 20.7 mph 27.6 mph N/A   Clear
11:55 AM 70.9 °F - 29.3 °F 21% 29.93 in 10.0 mi SSW 27.6 mph 36.8 mph N/A   Clear
12:15 PM 72.1 °F - 28.8 °F 20% 29.92 in 10.0 mi SSW 26.5 mph 35.7 mph N/A   Clear
12:35 PM 72.9 °F - 29.8 °F 20% 29.90 in 10.0 mi SSW 24.2 mph 34.5 mph N/A   Clear
12:55 PM 73.2 °F - 29.5 °F 20% 29.89 in 10.0 mi SSW 31.1 mph 38.0 mph N/A   Clear
1:15 PM 72.7 °F - 31.3 °F 22% 29.87 in 10.0 mi SSW 23.0 mph 38.0 mph N/A   Clear
1:35 PM 72.1 °F - 32.2 °F 23% 29.87 in 10.0 mi SSW 31.1 mph 39.1 mph N/A   Clear
1:55 PM 72.3 °F - 34.5 °F 25% 29.85 in 10.0 mi SSW 23.0 mph 36.8 mph N/A   Clear
2:15 PM 73.8 °F - 36.0 °F 25% 29.84 in 10.0 mi South 23.0 mph 32.2 mph N/A   Clear
2:35 PM 73.8 °F - 36.5 °F 26% 29.83 in 10.0 mi SSW 24.2 mph 32.2 mph N/A   Clear
2:55 PM 73.6 °F - 36.3 °F 26% 29.83 in 10.0 mi SSW 24.2 mph 34.5 mph N/A   Clear
3:15 PM 71.4 °F - 35.6 °F 27% 29.82 in 10.0 mi SSW 25.3 mph 31.1 mph N/A   Clear
3:35 PM 71.2 °F - 37.4 °F 29% 29.81 in 10.0 mi SSW 26.5 mph 32.2 mph N/A   Clear
3:55 PM 71.2 °F - 38.3 °F 30% 29.82 in 10.0 mi SSW 24.2 mph 34.5 mph N/A   Clear
4:15 PM 70.3 °F - 39.2 °F 32% 29.81 in 10.0 mi SSW 15.0 mph 23.0 mph N/A   Clear
4:35 PM 71.1 °F - 39.6 °F 32% 29.81 in 10.0 mi SSW 20.7 mph 27.6 mph N/A   Clear
4:55 PM 70.2 °F - 39.9 °F 33% 29.81 in 10.0 mi SSW 15.0 mph 25.3 mph N/A   Clear
5:15 PM 69.1 °F - 40.5 °F 35% 29.82 in 10.0 mi SSW 10.4 mph - N/A   Clear
5:35 PM 68.0 °F - 40.8 °F 37% 29.81 in 10.0 mi SSW 10.4 mph - N/A   Clear
5:55 PM 66.4 °F - 41.7 °F 41% 29.81 in 10.0 mi SSW 10.4 mph - N/A   Clear
6:15 PM 66.0 °F - 42.1 °F 42% 29.81 in 10.0 mi South 10.4 mph - N/A   Clear
6:35 PM 64.8 °F - 42.1 °F 44% 29.81 in 10.0 mi SSW 11.5 mph - N/A   Clear
6:55 PM 64.8 °F - 41.9 °F 43% 29.81 in 10.0 mi SSW 11.5 mph - N/A   Clear
7:15 PM 64.6 °F - 41.4 °F 43% 29.81 in 10.0 mi SSW 12.7 mph - N/A   Clear
7:35 PM 64.4 °F - 41.0 °F 42% 29.82 in 10.0 mi SSW 12.7 mph - N/A   Clear
7:55 PM 63.5 °F - 41.0 °F 44% 29.82 in 10.0 mi SSW 13.8 mph 19.6 mph N/A   Clear
8:15 PM 63.3 °F - 40.8 °F 44% 29.82 in 10.0 mi SSW 16.1 mph 21.9 mph N/A   Clear
8:35 PM 62.6 °F - 41.0 °F 45% 29.83 in 10.0 mi SSW 12.7 mph 20.7 mph N/A   Clear
8:55 PM 61.3 °F - 40.6 °F 47% 29.84 in 10.0 mi SSW 8.1 mph - N/A   Clear
9:15 PM 59.9 °F - 40.6 °F 49% 29.84 in 10.0 mi SSW 9.2 mph - N/A   Clear
9:35 PM 59.0 °F - 41.4 °F 52% 29.84 in 10.0 mi SSW 8.1 mph - N/A   Clear
9:55 PM 57.2 °F - 41.5 °F 56% 29.85 in 10.0 mi WSW 6.9 mph - N/A   Clear
10:15 PM 56.3 °F - 42.3 °F 59% 29.86 in 10.0 mi SSW 8.1 mph - N/A   Clear
10:35 PM 57.0 °F - 43.9 °F 61% 29.85 in 10.0 mi SSW 10.4 mph - N/A   Clear
10:55 PM 57.7 °F - 45.0 °F 62% 29.86 in 10.0 mi SW 9.2 mph - N/A   Clear
11:15 PM 59.0 °F - 46.0 °F 62% 29.85 in 10.0 mi SW 12.7 mph - N/A   Clear
11:35 PM 58.5 °F - 46.0 °F 63% 29.85 in 10.0 mi WSW 11.5 mph - N/A   Clear
11:55 PM 57.4 °F - 45.7 °F 65% 29.86 in 10.0 mi WSW 11.5 mph - N/A   Clear